Weather in Ust-Kan

Russia / Altai Republic     50°55′45″N   84°45′44″E
temp.,
°C
wind,
m/s
gust,
m/s
humid.,
%
clouds,
%
prec.,
mm/h
press.,
hPa
HPBL,
m
18 april, sun
sun1801:000nnw119051 0.1 1020118
04:00−1wsw119319 0.0 102013
07:00−1sw118513 0.0 102041
10:00+5sw25371 0.0 10171198
13:00+7sw38295 0.0 10151830
16:00+8sw47389 0.0 10141700
19:00+6sw484922 0.0 10141313
22:00+2ssw347392 0.0 101586
19 april, mon
mon1901:00+2s357395 0.0 101385
04:00+1s347466 0.0 101178
07:00+3ssw496866 0.0 1009299
10:00+2nnw4592100 1.3 1012499
13:000nne339098 3.4 1015410
16:00−2n5587100 1.5 1018533
19:00−5nne3489100 3.3 1020403
22:00−7n2491100 0.9 1022377
20 april, tue
tue2001:00−8nne2490100 1.6 1022401
04:00−9n3390100 0.5 1022340
07:00−10n3489100 0.8 1022336
10:00−7n3375100 0.2 1021900
13:00−5n4369100 0.3 10201032
16:00−5n5570100 0.2 10201084
19:00−7n5678100 0.4 1023853
22:00−10nnw358899 0.2 1026504
21 april, wed
wed2101:00−11nnw238681 0.4 1027349
04:00−12wnw119224 0.0 102767
07:00−12sw118912 0.1 102792
10:00−7e116478 0.0 1024602
13:00−4n224998 0.0 10211099
16:00−2nne234499 0.0 10191564
19:00−4n4475100 0.3 1021603
22:00−7n2390100 1.0 1024313
22 april, thu
thu2201:00−7n228873 1.6 1025237
04:00−9w119164 0.0 102647
07:00−7n1187100 0.1 1027204
10:00−5nne2372100 0.3 1027899
13:00−2n5554100 0.7 10271636
16:00−2n6752100 0.3 10281843
19:00−4n5767100 0.6 10321192
22:00−6nnw378897 0.3 1035527